FW2603 Weather Reports


Display with metric or nautical units.
time (UTC)temp
F
wind
direction
speed
MPH
gust
MPH
rain 1hr
in
rain 24hr
in
rain mn
in
humidity
%
barometer
mb
20260507130028 53 202 3.0 6.0 0.00 0.00 0.00 52 1016.6
20260507124534 53 207 2.0 4.0 0.00 0.00 0.00 51 1016.5
20260507123024 53 207 2.0 5.0 0.00 0.00 0.00 51 1016.4
20260507121522 53 252 2.0 3.0 0.00 0.00 0.00 50 1016.4
20260507120019 53 360 0.0 1.0 0.00 0.00 0.00 49 1016.5
20260507114518 53 253 0.0 3.0 0.00 0.00 0.00 49 1016.5
20260507113036 54 254 0.0 0.0 0.00 0.00 0.00 48 1016.4
20260507111518 54 254 0.0 2.0 0.00 0.00 0.00 47 1016.6
20260507110017 54 254 0.0 3.0 0.00 0.00 0.00 44 1016.8
20260507104515 53 254 1.0 3.0 0.00 0.00 0.00 40 1016.6
20260507103017 54 254 0.0 0.0 0.00 0.00 0.00 38 1017.0
20260507101516 54 254 0.0 0.0 0.00 0.00 0.00 36 1017.0
20260507100012 54 254 0.0 0.0 0.00 0.00 0.00 34 1017.1
20260507094507 54 254 0.0 0.0 0.00 0.00 0.00 34 1017.3
20260507093005 55 254 0.0 0.0 0.00 0.00 0.00 36 1017.4
20260507091504 54 254 0.0 0.0 0.00 0.00 0.00 42 1017.4
20260507090001 54 254 0.0 0.0 0.00 0.00 0.00 43 1017.6
20260507084611 54 254 0.0 0.0 0.00 0.00 0.00 42 1017.7
20260507083059 54 254 0.0 0.0 0.00 0.00 0.00 42 1017.8
20260507081601 54 254 0.0 0.0 0.00 0.00 0.00 42 1017.9
20260507080054 55 254 0.0 0.0 0.00 0.00 0.00 43 1018.1
20260507074558 55 254 0.0 0.0 0.00 0.00 0.00 46 1018.2
20260507073054 55 254 0.0 0.0 0.00 0.00 0.00 45 1018.2
20260507071550 55 254 0.0 0.0 0.00 0.00 0.00 43 1018.3
20260507070048 55 254 0.0 1.0 0.00 0.00 0.00 42 1018.3
20260507064550 55 254 0.0 1.0 0.00 0.00 0.00 38 1018.3
20260507063047 55 254 1.0 4.0 0.00 0.00 0.00 39 1018.4
20260507061547 55 254 2.0 5.0 0.00 0.00 0.00 38 1018.2
20260507060045 55 254 3.0 7.0 0.00 0.00 0.00 36 1018.4
20260507054545 55 254 4.0 7.0 0.00 0.00 0.00 36 1018.2
20260507053046 54 254 3.0 7.0 0.00 0.00 0.00 33 1018.2
20260507051544 54 253 4.0 8.0 0.00 0.00 0.00 40 1018.3
20260507050044 54 253 5.0 8.0 0.00 0.00 0.00 42 1018.3
20260507044555 55 360 2.0 6.0 0.00 0.00 0.00 42 1018.2
20260507043056 55 360 3.0 7.0 0.00 0.00 0.00 39 1018.1
20260507041542 55 360 3.0 6.0 0.00 0.00 0.00 34 1018.1
20260507040042 55 360 3.0 6.0 0.00 0.00 0.00 31 1018.0
20260507034542 56 360 3.0 6.0 0.00 0.00 0.00 34 1017.9
20260507033040 56 360 3.0 5.0 0.00 0.00 0.00 43 1017.8
20260507031545 56 360 3.0 5.0 0.00 0.00 0.00 53 1017.7
20260507030038 57 360 4.0 5.0 0.00 0.00 0.00 54 1017.6
20260507024539 57 360 4.0 6.0 0.00 0.00 0.00 53 1017.5
20260507023037 58 248 5.0 8.0 0.00 0.00 0.00 52 1017.3
20260507021539 60 248 4.0 9.0 0.00 0.00 0.00 50 1017.3
20260507020048 61 252 5.0 12.0 0.00 0.00 0.00 49 1017.1
20260507014537 62 360 5.0 11.0 0.00 0.00 0.00 46 1017.3
20260507013034 62 360 6.0 11.0 0.00 0.00 0.00 46 1017.3
20260507011543 63 360 4.0 11.0 0.00 0.00 0.00 47 1017.2
20260507010036 64 360 6.0 11.0 0.00 0.00 0.00 47 1017.2
20260507004533 64 360 5.0 11.0 0.00 0.00 0.00 46 1017.1
20260507003032 65 360 6.0 14.0 0.00 0.00 0.00 46 1016.9
20260507001603 64 360 8.0 13.0 0.00 0.00 0.00 43 1016.8
20260507000040 65 360 6.0 13.0 0.00 0.00 0.00 43 1016.8
20260506234531 65 360 7.0 12.0 0.00 0.00 0.00 42 1016.7
20260506233029 65 360 8.0 16.0 0.00 0.00 0.00 44 1016.8
20260506231528 64 360 7.0 14.0 0.00 0.00 0.00 44 1017.0
20260506230043 65 360 10.0 15.0 0.00 0.00 0.00 43 1017.1
20260506224526 65 360 6.0 13.0 0.00 0.00 0.00 44 1017.1
20260506223030 65 360 8.0 13.0 0.00 0.00 0.00 44 1017.1
20260506221524 65 360 8.0 13.0 0.00 0.00 0.00 44 1017.2
20260506220023 65 360 8.0 16.0 0.00 0.00 0.00 45 1017.3
20260506214521 65 360 7.0 15.0 0.00 0.00 0.00 44 1017.4
20260506213021 66 360 8.0 19.0 0.00 0.00 0.00 43 1017.5
20260506211522 66 360 10.0 16.0 0.00 0.00 0.00 42 1018.2
20260506210038 66 360 9.0 17.0 0.00 0.00 0.00 42 1017.4
20260506204517 66 360 7.0 17.0 0.00 0.00 0.00 43 1017.7
20260506203014 66 360 6.0 14.0 0.00 0.00 0.00 43 1017.8
20260506201519 67 360 7.0 15.0 0.00 0.00 0.00 42 1017.9
20260506200010 67 360 5.0 13.0 0.00 0.00 0.00 42 1018.1
20260506194509 66 360 6.0 14.0 0.00 0.00 0.00 42 1018.4
20260506193011 66 360 5.0 13.0 0.00 0.00 0.00 42 1018.6
20260506191510 66 360 5.0 10.0 0.00 0.00 0.00 41 1018.7
20260506190002 66 360 2.0 11.0 0.00 0.00 0.00 42 1018.8
20260506184559 65 360 3.0 11.0 0.00 0.00 0.00 42 1018.8
20260506183104 64 360 8.0 13.0 0.00 0.00 0.00 41 1019.1
20260506181555 63 360 6.0 12.0 0.00 0.00 0.00 43 1019.1
20260506180050 62 360 6.0 13.0 0.00 0.00 0.00 42 1019.3
20260506174544 62 360 6.0 11.0 0.00 0.00 0.00 41 1019.3
20260506173045 61 360 4.0 11.0 0.00 0.00 0.00 43 1019.5
20260506171538 60 360 2.0 9.0 0.00 0.00 0.00 45 1019.7
20260506170043 60 360 6.0 10.0 0.00 0.00 0.00 45 1019.7
20260506164546 59 360 3.0 8.0 0.00 0.00 0.00 44 1019.6
20260506163029 58 360 4.0 8.0 0.00 0.00 0.00 46 1019.6
20260506161527 58 360 4.0 9.0 0.00 0.00 0.00 44 1019.6
20260506160027 57 360 2.0 5.0 0.00 0.00 0.00 45 1019.5
20260506154521 57 239 1.0 5.0 0.00 0.12 0.00 44 1019.5
20260506153020 56 239 2.0 5.0 0.00 0.12 0.00 44 1019.5
20260506151516 56 230 0.0 3.0 0.00 0.12 0.00 44 1019.5
20260506150010 55 230 2.0 4.0 0.00 0.12 0.00 43 1019.4
20260506144511 55 243 0.0 3.0 0.00 0.12 0.00 43 1019.4
20260506143003 54 242 1.0 3.0 0.00 0.12 0.00 42 1019.3
20260506141601 54 360 0.0 2.0 0.00 0.12 0.00 40 1019.2
20260506140056 53 360 0.0 0.0 0.00 0.12 0.00 38 1019.1
20260506134552 52 360 0.0 0.0 0.00 0.12 0.00 39 1019.0
20260506133104 51 360 0.0 0.0 0.00 0.12 0.00 40 1019.0
20260506131545 50 360 0.0 0.0 0.00 0.12 0.00 41 1018.8